YO7MGN Weather Reports


Display with metric or nautical units.
time (UTC)temp
F
wind
direction
speed
MPH
gust
MPH
rain 1hr
in
rain 24hr
in
rain mn
in
humidity
%
barometer
mb
20260906031519 72 150 0.0 0.0 0.00 0.00 0.00 58 1017.6
20260906030017 73 150 0.0 0.0 0.00 0.00 0.00 58 1017.3
20260906024516 73 150 0.0 0.0 0.00 0.00 0.00 57 1017.2
20260906023012 73 150 0.0 0.0 0.00 0.00 0.00 58 1016.9
20260906021509 74 150 0.0 0.0 0.00 0.00 0.00 56 1016.9
20260906020011 74 150 0.0 0.0 0.00 0.00 0.00 55 1016.7
20260906014505 75 150 0.0 0.0 0.00 0.00 0.00 55 1016.4
20260906013005 75 150 0.0 0.0 0.00 0.00 0.00 55 1016.4
20260906011504 75 150 0.0 0.0 0.00 0.00 0.00 55 1016.3
20260906010003 74 150 0.0 0.0 0.00 0.00 0.00 56 1016.1
20260906004503 74 150 0.0 1.0 0.00 0.00 0.00 56 1016.2
20260906003101 74 182 0.0 0.0 0.00 0.00 0.00 57 1016.0
20260906001557 74 182 0.0 0.0 0.00 0.00 0.00 56 1015.7
20260906000106 74 182 0.0 0.0 0.00 0.00 0.00 56 1015.6
20260905234618 74 182 0.0 1.0 0.00 0.00 0.00 56 1015.4
20260905233053 74 182 0.0 1.0 0.00 0.00 0.00 55 1015.4
20260905231555 74 182 0.0 0.0 0.00 0.00 0.00 54 1015.3
20260905230051 75 182 0.0 0.0 0.00 0.00 0.00 52 1015.0
20260905224547 76 182 0.0 0.0 0.00 0.00 0.00 51 1015.1
20260905223049 76 182 0.0 0.0 0.00 0.00 0.00 50 1015.2
20260905221643 77 182 0.0 0.0 0.00 0.00 0.00 48 1015.1
20260905220041 77 180 0.0 0.0 0.00 0.00 0.00 47 1015.1
20260905214539 78 184 0.0 0.0 0.00 0.00 0.00 46 1015.0
20260905213036 78 184 0.0 0.0 0.00 0.00 0.00 46 1014.7
20260905211538 78 184 0.0 0.0 0.00 0.00 0.00 45 1014.5
20260905204535 77 178 0.0 0.0 0.00 0.00 0.00 48 1014.3
20260905203029 78 178 0.0 0.0 0.00 0.00 0.00 51 1014.3
20260905201529 78 178 0.0 0.0 0.00 0.00 0.00 49 1014.1
20260905200028 79 178 0.0 0.0 0.00 0.00 0.00 48 1013.8
20260905194527 79 178 0.0 0.0 0.00 0.00 0.00 50 1013.7
20260905193026 80 178 0.0 0.0 0.00 0.00 0.00 50 1013.6
20260905191530 81 178 0.0 0.0 0.00 0.00 0.00 49 1013.5
20260905190026 81 178 0.0 0.0 0.00 0.00 0.00 47 1013.6
20260905184525 82 178 0.0 0.0 0.00 0.00 0.00 46 1013.6
20260905183025 83 178 0.0 0.0 0.00 0.00 0.00 46 1013.5
20260905181524 84 178 0.0 0.0 0.00 0.00 0.00 44 1013.4
20260905180023 86 178 0.0 0.0 0.00 0.00 0.00 42 1013.3
20260905174524 87 178 0.0 0.0 0.00 0.00 0.00 39 1013.1
20260905173023 89 178 0.0 0.0 0.00 0.00 0.00 38 1013.0
20260905171533 90 178 0.0 0.0 0.00 0.00 0.00 36 1012.9
20260905170025 93 178 0.0 0.0 0.00 0.00 0.00 33 1012.7
20260905164521 95 178 0.0 0.0 0.00 0.00 0.00 31 1012.7
20260905163030 96 178 0.0 0.0 0.00 0.00 0.00 28 1012.7
20260905161521 97 178 0.0 0.0 0.00 0.00 0.00 27 1012.7
20260905160020 97 178 0.0 0.0 0.00 0.00 0.00 26 1012.8
20260905154519 98 155 0.0 0.0 0.00 0.00 0.00 26 1012.7
20260905153021 98 151 0.0 0.0 0.00 0.00 0.00 25 1012.8
20260905151517 99 162 0.0 0.0 0.00 0.00 0.00 24 1012.9
20260905150019 100 178 0.0 0.0 0.00 0.00 0.00 23 1012.9
20260905144516 101 178 0.0 0.0 0.00 0.00 0.00 22 1013.0
20260905143014 101 172 0.0 0.0 0.00 0.00 0.00 22 1013.2
20260905141510 100 153 0.0 0.0 0.00 0.00 0.00 23 1013.2
20260905140008 101 173 0.0 0.0 0.00 0.00 0.00 23 1013.4
20260905134512 100 163 0.0 0.0 0.00 0.00 0.00 23 1013.5
20260905133008 100 173 0.0 0.0 0.00 0.00 0.00 24 1013.6
20260905131509 100 167 0.0 0.0 0.00 0.00 0.00 24 1013.7
20260905130003 98 190 0.0 0.0 0.00 0.00 0.00 24 1013.9
20260905124504 99 169 0.0 0.0 0.00 0.00 0.00 24 1014.0
20260905123103 101 142 0.0 0.0 0.00 0.00 0.00 22 1014.2
20260905121556 100 182 0.0 0.0 0.00 0.00 0.00 23 1014.5
20260905120054 100 161 0.0 0.0 0.00 0.00 0.00 24 1014.6
20260905114602 99 166 0.0 0.0 0.00 0.00 0.00 24 1014.9
20260905113044 99 191 0.0 0.0 0.00 0.00 0.00 25 1015.1
20260905111601 98 155 0.0 0.0 0.00 0.00 0.00 26 1015.2
20260905110036 97 10 0.0 0.0 0.00 0.00 0.00 28 1015.4
20260905104534 97 11 0.0 0.0 0.00 0.00 0.00 28 1015.5
20260905103028 97 66 0.0 0.0 0.00 0.00 0.00 28 1015.6
20260905101526 95 90 0.0 0.0 0.00 0.00 0.00 29 1015.7
20260905100022 94 171 0.0 0.0 0.00 0.00 0.00 31 1015.8
20260905094520 93 181 0.0 0.0 0.00 0.00 0.00 31 1016.0
20260905093013 92 111 0.0 0.0 0.00 0.00 0.00 33 1016.1
20260905091508 91 173 0.0 0.0 0.00 0.00 0.00 35 1016.2
20260905090007 89 164 0.0 0.0 0.00 0.00 0.00 36 1016.3
20260905084607 88 55 0.0 0.0 0.00 0.00 0.00 38 1016.4
20260905083055 86 52 0.0 0.0 0.00 0.00 0.00 39 1016.5
20260905081551 84 177 0.0 0.0 0.00 0.00 0.00 42 1016.5
20260905074548 80 178 0.0 0.0 0.00 0.00 0.00 46 1016.7
20260905073038 79 178 0.0 0.0 0.00 0.00 0.00 47 1016.7
20260905071535 77 178 0.0 0.0 0.00 0.00 0.00 50 1016.7
20260905070029 76 182 0.0 0.0 0.00 0.00 0.00 53 1016.7
20260905064524 74 17 0.0 0.0 0.00 0.00 0.00 56 1016.7
20260905063023 72 18 0.0 0.0 0.00 0.00 0.00 59 1016.7
20260905061525 70 18 0.0 0.0 0.00 0.00 0.00 63 1016.8
20260905060014 68 18 0.0 0.0 0.00 0.00 0.00 67 1016.9
20260905054513 66 18 0.0 0.0 0.00 0.00 0.00 70 1016.7
20260905053005 64 18 0.0 0.0 0.00 0.00 0.00 73 1016.8
20260905051510 64 18 0.0 1.0 0.00 0.00 0.00 73 1016.8
20260905050003 63 18 0.0 0.0 0.00 0.00 0.00 73 1016.7
20260905044504 63 18 0.0 1.0 0.00 0.00 0.00 73 1016.9
20260905041608 63 18 0.0 0.0 0.00 0.00 0.00 73 1016.7
20260905040109 62 18 0.0 0.0 0.00 0.00 0.00 73 1016.5
20260905034555 63 18 0.0 0.0 0.00 0.00 0.00 73 1016.3
20260905033105 63 18 0.0 0.0 0.00 0.00 0.00 72 1016.2